Location: Hokitika
(42.7170°S, 170.9670°E)
Time: 02:54:11
(UTC+13:00)

CZ-4C R/B - Pass Details

Date: 24 January 2019
Orbit: 671 x 1331 km, 63.4° (Epoch: 17 February)

Event Time Altitude Azimuth Distance (km) Brightness Sun altitude
Rises 21:59:46 0° 214° (SW) 3,733 7.1 -8.8°
Reaches altitude 10° 22:03:32 10° 195° (SSW) 2,639 5.6 -9.4°
Maximum altitude 22:07:25 17° 155° (SSE) 2,031 4.4 -9.9°
Drops below altitude 10° 22:10:57 10° 114° (ESE) 2,368 4.3 -10.4°
Enters shadow 22:13:13 - 98° (E) 2,939 4.6 -10.8°
